This demonstration page uses our WeatherBlox Daily Observations layout. Learn more.

Left ArrowRight Arrow

Hourly Observations for February 3, 2022

Temp ( °F °C ) Dew Point ( °F °C ) Humidity (%) Winds ( mph kmh ) Pressure ( in mb ) Visibility ( mi km ) Precip ( " mm )
12:56 am 00:56 Cloudy 5 -15 -9 -22.8 52 52 NNE 13 20 30.62 1037 10 16 0.00 0.00
1:56 am 01:56 Mostly Cloudy 4 -15.6 -9 -22.8 54 54 NNE 9 15 30.62 1037 10 16 0.00 0.00
2:56 am 02:56 Mostly Clear 1 -17.2 -9 -22.8 62 62 NNE 9 15 30.63 1037 10 16 0.00 0.00
3:56 am 03:56 Clear 0 -17.8 -9 -22.8 65 65 N 9 15 30.62 1037 10 16 0.00 0.00
4:56 am 04:56 Clear 0 -17.8 -10 -23.3 62 62 N 8 13 30.62 1037 10 16 0.00 0.00
5:56 am 05:56 Clear -2 -18.9 -10 -23.3 68 68 NNE 8 13 30.62 1037 10 16 0.00 0.00
6:56 am 06:56 Clear -4 -20 -11 -23.9 71 71 NNE 8 13 30.63 1037 10 16 0.00 0.00
7:56 am 07:56 Sunny -4 -20 -11 -23.9 71 71 NNE 8 13 30.64 1038 10 16 0.00 0.00
8:56 am 08:56 Sunny 1 -17.2 -9 -22.8 62 62 NE 12 19 30.65 1038 10 16 0.00 0.00
9:56 am 09:56 Sunny 4 -15.6 -9 -22.8 54 54 ENE 7 11 30.66 1038 10 16 0.00 0.00
10:56 am 10:56 Sunny 6 -14.4 -10 -23.3 47 47 Calm 30.65 1038 10 16 0.00 0.00
11:56 am 11:56 Sunny 9 -12.8 -11 -23.9 39 39 ENE 7 11 30.63 1037 10 16 0.00 0.00
12:56 pm 12:56 Sunny 13 -10.6 -10 -23.3 35 35 VRB 5 7 30.58 1036 10 16 0.00 0.00
1:56 pm 13:56 Sunny 15 -9.4 -9 -22.8 33 33 VRB 3 6 30.55 1034 10 16 0.00 0.00
2:56 pm 14:56 Sunny 18 -7.8 -7 -21.7 32 32 SSE 5 7 30.53 1034 10 16 0.00 0.00
3:56 pm 15:56 Sunny 19 -7.2 -6 -21.1 32 32 SSW 6 9 30.52 1034 10 16 0.00 0.00
4:56 pm 16:56 Sunny 19 -7.2 -6 -21.1 32 32 S 8 13 30.52 1034 10 16 0.00 0.00
5:56 pm 17:56 Sunny 16 -8.9 -5 -20.6 38 38 SSW 8 13 30.53 1034 10 16 0.00 0.00
6:56 pm 18:56 Clear 12 -11.1 -6 -21.1 44 44 S 7 11 30.53 1034 10 16 0.00 0.00
7:56 pm 19:56 Clear 12 -11.1 -5 -20.6 46 46 SSW 9 15 30.53 1034 10 16 0.00 0.00
8:56 pm 20:56 Clear 8 -13.3 -6 -21.1 52 52 SSW 8 13 30.53 1034 10 16 0.00 0.00
9:56 pm 21:56 Clear 10 -12.2 -4 -20 53 53 SSW 7 11 30.54 1034 10 16 0.00 0.00
10:56 pm 22:56 Clear 11 -11.7 -4 -20 51 51 SW 13 20 30.52 1034 10 16 0.00 0.00
11:56 pm 23:56 Clear 9 -12.8 -4 -20 55 55 SSW 9 15 30.50 1033 10 16 0.00 0.00

Powered by AerisWeather